• In Uzbekistan
  • List of Countries
  • For 7 days
  • Water Temperature
  • Weather Map
  • Weather Widgets
  • user-avatar
    Login

    Hourly Weather Nanning

    Today, 19 August, Monday

    Time Temperature Precipitation Wind Pressure Humidity
    00:00 +29°C° 0 mm 2 mps 745 mmHg 88%
    01:00 +28°C° 0 mm 2 mps 745 mmHg 88%
    02:00 +28°C° 0 mm 2 mps 745 mmHg 89%
    03:00 +28°C° 0 mm 2 mps 744 mmHg 90%
    04:00 +28°C° 0 mm 1 mps 744 mmHg 91%
    05:00 +28°C° 0 mm 2 mps 744 mmHg 89%
    06:00 +29°C° 0 mm 2 mps 745 mmHg 87%
    07:00 +29°C° 0 mm 2 mps 745 mmHg 85%
    08:00 +31°C° 0 mm 2 mps 745 mmHg 78%
    09:00 +32°C° 0 mm 2 mps 745 mmHg 71%
    10:00 +35°C° 0 mm 3 mps 745 mmHg 64%
    11:00 +35°C° 0.1 mm 3 mps 745 mmHg 62%
    12:00 +36°C° 0.1 mm 3 mps 744 mmHg 60%
    13:00 +37°C° 0.1 mm 3 mps 744 mmHg 58%
    14:00 +36°C° 0.1 mm 3 mps 744 mmHg 59%
    15:00 +36°C° 0.1 mm 3 mps 743 mmHg 60%
    16:00 +36°C° 0.1 mm 3 mps 743 mmHg 61%
    17:00 +35°C° 0 mm 3 mps 743 mmHg 66%
    18:00 +34°C° 0 mm 2 mps 743 mmHg 70%
    19:00 +31°C° 0 mm 2 mps 744 mmHg 75%
    20:00 +31°C° 0.2 mm 2 mps 744 mmHg 77%
    21:00 +30°C° 0.2 mm 2 mps 745 mmHg 80%
    22:00 +30°C° 0.2 mm 1 mps 746 mmHg 82%
    23:00 +30°C° 0 mm 1 mps 745 mmHg 83%

    Tomorrow, 20 August, Tuesday

    Time Temperature Precipitation Wind Pressure Humidity
    00:00 +29°C° 0 mm 1 mps 745 mmHg 84%
    01:00 +29°C° 0 mm 1 mps 745 mmHg 85%
    02:00 +29°C° 0 mm 1 mps 745 mmHg 86%
    03:00 +28°C° 0 mm 1 mps 745 mmHg 86%
    04:00 +28°C° 0 mm 1 mps 745 mmHg 86%
    05:00 +29°C° 0 mm 1 mps 745 mmHg 84%
    06:00 +30°C° 0 mm 1 mps 745 mmHg 82%
    07:00 +30°C° 0 mm 1 mps 745 mmHg 79%
    08:00 +32°C° 0 mm 2 mps 745 mmHg 73%
    09:00 +34°C° 0 mm 3 mps 746 mmHg 66%
    10:00 +36°C° 0 mm 3 mps 746 mmHg 59%
    11:00 +36°C° 0.4 mm 3 mps 745 mmHg 59%
    12:00 +37°C° 0.4 mm 4 mps 745 mmHg 58%
    13:00 +37°C° 0.4 mm 4 mps 744 mmHg 58%
    14:00 +36°C° 1.1 mm 4 mps 744 mmHg 61%
    15:00 +36°C° 1.1 mm 4 mps 744 mmHg 63%
    16:00 +35°C° 1.1 mm 4 mps 743 mmHg 66%
    17:00 +34°C° 0.3 mm 4 mps 743 mmHg 72%
    18:00 +31°C° 0.3 mm 3 mps 744 mmHg 78%
    19:00 +30°C° 0.3 mm 3 mps 744 mmHg 83%
    20:00 +30°C° 0.3 mm 2 mps 745 mmHg 84%
    21:00 +29°C° 0.3 mm 2 mps 745 mmHg 86%
    22:00 +29°C° 0.3 mm 2 mps 746 mmHg 87%
    23:00 +29°C° 0.2 mm 1 mps 746 mmHg 88%

    Day after tomorrow, 21 August, Wednesday

    Time Temperature Precipitation Wind Pressure Humidity
    00:00 +29°C° 0.2 mm 1 mps 746 mmHg 88%
    01:00 +28°C° 0.2 mm 1 mps 745 mmHg 88%
    02:00 +28°C° 0.4 mm 1 mps 745 mmHg 89%
    03:00 +28°C° 0.4 mm 1 mps 745 mmHg 89%
    04:00 +28°C° 0.4 mm 1 mps 745 mmHg 89%
    05:00 +28°C° 1 mm 1 mps 745 mmHg 88%
    06:00 +29°C° 1 mm 2 mps 746 mmHg 86%
    07:00 +29°C° 1 mm 2 mps 746 mmHg 84%
    08:00 +31°C° 0.6 mm 2 mps 746 mmHg 78%
    09:00 +32°C° 0.6 mm 2 mps 746 mmHg 72%
    10:00 +34°C° 0.6 mm 3 mps 747 mmHg 66%
    11:00 +35°C° 0.1 mm 3 mps 746 mmHg 63%
    12:00 +36°C° 0.1 mm 3 mps 745 mmHg 60%
    13:00 +36°C° 0.1 mm 3 mps 745 mmHg 57%
    14:00 +36°C° 0.4 mm 3 mps 744 mmHg 59%
    15:00 +36°C° 0.4 mm 3 mps 744 mmHg 61%
    16:00 +35°C° 0.4 mm 4 mps 743 mmHg 63%
    17:00 +34°C° 0.2 mm 3 mps 744 mmHg 68%
    18:00 +33°C° 0.2 mm 3 mps 744 mmHg 73%
    19:00 +30°C° 0.2 mm 2 mps 745 mmHg 78%
    20:00 +30°C° 0 mm 2 mps 745 mmHg 80%
    21:00 +29°C° 0 mm 2 mps 746 mmHg 82%
    22:00 +29°C° 0 mm 2 mps 747 mmHg 84%
    23:00 +29°C° 0 mm 2 mps 746 mmHg 85%

    22 August, Thursday

    Time Temperature Precipitation Wind Pressure Humidity
    00:00 +29°C° 0 mm 2 mps 746 mmHg 86%
    01:00 +28°C° 0 mm 2 mps 746 mmHg 86%
    02:00 +28°C° 0 mm 2 mps 746 mmHg 87%
    03:00 +28°C° 0 mm 2 mps 746 mmHg 87%
    04:00 +28°C° 0 mm 1 mps 745 mmHg 88%
    05:00 +28°C° 0 mm 2 mps 746 mmHg 86%
    06:00 +28°C° 0 mm 2 mps 746 mmHg 84%
    07:00 +29°C° 0 mm 2 mps 747 mmHg 83%
    08:00 +30°C° 0.2 mm 2 mps 747 mmHg 75%
    09:00 +33°C° 0.2 mm 3 mps 747 mmHg 68%
    10:00 +34°C° 0.2 mm 3 mps 747 mmHg 61%
    11:00 +35°C° 0.3 mm 3 mps 747 mmHg 61%
    12:00 +35°C° 0.3 mm 3 mps 747 mmHg 61%
    13:00 +35°C° 0.3 mm 2 mps 746 mmHg 61%
    14:00 +34°C° 0.8 mm 2 mps 746 mmHg 67%
    15:00 +32°C° 0.8 mm 2 mps 745 mmHg 73%
    16:00 +31°C° 0.8 mm 1 mps 745 mmHg 78%
    17:00 +30°C° 0 mm 1 mps 745 mmHg 80%
    18:00 +30°C° 0 mm 1 mps 745 mmHg 81%
    19:00 +29°C° 0 mm 1 mps 746 mmHg 82%
    20:00 +29°C° 0 mm 1 mps 746 mmHg 83%
    21:00 +29°C° 0 mm 1 mps 747 mmHg 84%
    22:00 +29°C° 0 mm 1 mps 747 mmHg 85%
    23:00 +28°C° 0 mm 1 mps 747 mmHg 85%

    23 August, Friday

    Time Temperature Precipitation Wind Pressure Humidity
    00:00 +28°C° 0 mm 1 mps 747 mmHg 86%
    01:00 +28°C° 0 mm 1 mps 747 mmHg 87%
    02:00 +27°C° 0 mm 1 mps 746 mmHg 87%
    03:00 +27°C° 0 mm 1 mps 746 mmHg 87%
    04:00 +27°C° 0 mm 1 mps 746 mmHg 88%
    05:00 +28°C° 0 mm 1 mps 747 mmHg 86%
    06:00 +28°C° 0 mm 1 mps 747 mmHg 85%
    07:00 +29°C° 0 mm 1 mps 748 mmHg 83%
    08:00 +30°C° 0 mm 1 mps 748 mmHg 76%
    09:00 +32°C° 0 mm 1 mps 748 mmHg 68%
    10:00 +34°C° 0 mm 1 mps 748 mmHg 61%
    11:00 +36°C° 0 mm 2 mps 747 mmHg 57%
    12:00 +36°C° 0 mm 2 mps 747 mmHg 53%
    13:00 +37°C° 0 mm 3 mps 746 mmHg 50%
    14:00 +37°C° 0 mm 3 mps 746 mmHg 50%
    15:00 +37°C° 0 mm 4 mps 745 mmHg 51%
    16:00 +37°C° 0 mm 4 mps 745 mmHg 52%
    17:00 +35°C° 0 mm 3 mps 745 mmHg 57%
    18:00 +34°C° 0 mm 3 mps 745 mmHg 61%
    19:00 +31°C° 0 mm 2 mps 746 mmHg 66%
    20:00 +31°C° 0 mm 2 mps 746 mmHg 69%
    21:00 +30°C° 0 mm 2 mps 747 mmHg 72%
    22:00 +29°C° 0 mm 1 mps 748 mmHg 76%
    23:00 +29°C° 0 mm 1 mps 747 mmHg 78%

    24 August, Saturday

    Time Temperature Precipitation Wind Pressure Humidity
    00:00 +29°C° 0 mm 1 mps 747 mmHg 80%
    01:00 +26°C° 0 mm 0 mps 747 mmHg 82%
    02:00 +26°C° 0 mm 0 mps 747 mmHg 83%
    03:00 +26°C° 0 mm 0 mps 747 mmHg 84%
    04:00 +28°C° 0 mm 1 mps 747 mmHg 85%
    05:00 +29°C° 0 mm 1 mps 747 mmHg 83%
    06:00 +29°C° 0 mm 1 mps 747 mmHg 80%
    07:00 +30°C° 0 mm 1 mps 748 mmHg 78%
    08:00 +31°C° 0.1 mm 1 mps 748 mmHg 72%
    09:00 +33°C° 0.1 mm 1 mps 748 mmHg 66%
    10:00 +35°C° 0.1 mm 2 mps 748 mmHg 60%
    11:00 +35°C° 0.3 mm 1 mps 747 mmHg 57%
    12:00 +36°C° 0.3 mm 1 mps 746 mmHg 54%
    13:00 +37°C° 0.3 mm 1 mps 746 mmHg 51%
    14:00 +36°C° 0.1 mm 1 mps 745 mmHg 52%
    15:00 +36°C° 0.1 mm 1 mps 745 mmHg 54%
    16:00 +36°C° 0.1 mm 1 mps 745 mmHg 55%
    17:00 +34°C° 0.5 mm 1 mps 745 mmHg 64%
    18:00 +32°C° 0.5 mm 2 mps 745 mmHg 73%
    19:00 +30°C° 0.5 mm 3 mps 745 mmHg 81%
    20:00 +30°C° 1.4 mm 2 mps 746 mmHg 82%
    21:00 +30°C° 1.4 mm 2 mps 747 mmHg 83%
    22:00 +29°C° 1.4 mm 2 mps 747 mmHg 84%
    23:00 +29°C° 0.4 mm 2 mps 747 mmHg 85%
    Show more